This demonstration page uses our WeatherBlox Daily Observations layout. Learn more.

Left ArrowRight Arrow

Hourly Observations for August 14, 2022

Temp ( °F °C ) Dew Point ( °F °C ) Humidity (%) Winds ( mph kmh ) Pressure ( in mb ) Visibility ( mi km ) Precip ( " mm )
12:52 am 00:52 Cloudy 72 22.2 64 17.8 76 76 NE 6 9 29.99 1016 10 16 0.00 0.00
1:52 am 01:52 Cloudy 71 21.7 63 17.2 76 76 ENE 8 13 29.99 1016 10 16 0.00 0.00
2:52 am 02:52 Mostly Cloudy 70 21.1 62 16.7 76 76 E 6 9 29.98 1015 10 16 0.00 0.00
3:52 am 03:52 Mostly Cloudy 69 20.6 63 17.2 81 81 Calm 29.99 1016 10 16 0.00 0.00
4:52 am 04:52 Mostly Cloudy 66 18.9 63 17.2 90 90 N 3 6 30.00 1016 10 16 0.00 0.00
5:52 am 05:52 Mostly Cloudy 64 17.8 63 17.2 96 96 N 5 7 30.01 1016 10 16 0.00 0.00
6:52 am 06:52 Mostly Cloudy 64 17.8 63 17.2 96 96 N 7 11 30.02 1017 10 16 0.00 0.00
7:52 am 07:52 Mostly Cloudy 66 18.9 63 17.2 90 90 N 5 7 30.02 1017 10 16 0.00 0.00
8:52 am 08:52 Mostly Cloudy 68 20 63 17.2 84 84 N 6 9 30.03 1017 10 16 0.00 0.00
9:52 am 09:52 Mostly Cloudy 71 21.7 62 16.7 73 73 NNE 5 7 30.03 1017 10 16 0.00 0.00
10:52 am 10:52 Mostly Cloudy 75 23.9 63 17.2 66 66 N 6 9 30.01 1016 10 16 0.00 0.00
11:52 am 11:52 Mostly Cloudy 75 23.9 62 16.7 64 64 NE 8 13 30.02 1017 10 16 0.00 0.00
12:52 pm 12:52 Mostly Cloudy 77 25 63 17.2 62 62 ENE 8 13 30.01 1016 10 16 0.00 0.00
1:52 pm 13:52 Mostly Cloudy 80 26.7 64 17.8 58 58 ENE 9 15 30.00 1016 10 16 0.00 0.00
2:52 pm 14:52 Mostly Cloudy 78 25.6 64 17.8 62 62 E 7 11 30.00 1016 10 16 0.00 0.00
3:52 pm 15:52 Cloudy 78 25.6 64 17.8 62 62 E 3 6 29.99 1016 10 16 0.00 0.00
4:52 pm 16:52 Cloudy 79 26.1 64 17.8 60 60 NNE 6 9 29.98 1015 10 16 0.00 0.00
5:52 pm 17:52 Cloudy 77 25 63 17.2 62 62 NE 7 11 29.99 1016 10 16 0.00 0.00
6:52 pm 18:52 Cloudy 76 24.4 64 17.8 67 67 NE 8 13 29.99 1016 10 16 0.00 0.00
7:52 pm 19:52 Mostly Cloudy 74 23.3 64 17.8 71 71 NE 7 11 29.99 1016 10 16 0.00 0.00
8:52 pm 20:52 Mostly Cloudy 73 22.8 62 16.7 68 68 E 12 19 29.97 1015 10 16 0.00 0.00
9:52 pm 21:52 Mostly Cloudy 73 22.8 62 16.7 68 68 SSE 10 17 29.97 1015 10 16 0.00 0.00
10:52 pm 22:52 Mostly Cloudy 72 22.2 62 16.7 71 71 E 5 7 29.97 1015 10 16 0.00 0.00
11:52 pm 23:52 Mostly Cloudy 71 21.7 62 16.7 73 73 ESE 7 11 29.98 1015 10 16 0.00 0.00

Powered by AerisWeather